Location: Gälforsberget
(66.6500°N, 22.4167°E)
Time: 11:09:14
(UTC+00:00)

ARGOS Delta rocket - Pass Details

Date: 11 April 2026
Orbit: 630 x 826 km, 96.5° (Epoch: 10 May)

Event Time Altitude Azimuth Distance (km) Brightness Sun altitude
Rises 22:49:41 0° 16° (NNE) 2,949 8.8 -14.7°
Reaches altitude 10° 22:51:54 10° 18° (NNE) 2,031 7.5 -14.7°
Maximum altitude 22:56:19 82° 106° (ESE) 649 3.6 -14.6°
Enters shadow 22:58:56 24° 192° (SSW) 1,313 4.6 -14.6°
